When you browse on this site, cookies collect data to enhance your experience and personalize the content and advertising you see.
Visit our Privacy Policy to learn more. By continuing to use the site, you agree to this use of cookies and data.
  • In Latvia
  • List of Countries
  • For 7 days
  • Water Temperature
  • Weather Map
  • Weather Widgets
  • user-avatar
    Login

    Hourly Weather Kerns

    Today, 1 June, Monday

    Time Temperature Precipitation Wind Pressure Humidity
    00:00 +21°C° 0.1 mm 2 mps 762 mmHg 98%
    01:00 +21°C° 0.1 mm 2 mps 762 mmHg 98%
    02:00 +21°C° 0 mm 2 mps 762 mmHg 98%
    03:00 +21°C° 0 mm 2 mps 761 mmHg 98%
    04:00 +21°C° 0 mm 2 mps 761 mmHg 97%
    05:00 +20°C° 0 mm 2 mps 761 mmHg 97%
    06:00 +20°C° 0 mm 2 mps 762 mmHg 97%
    07:00 +20°C° 0 mm 2 mps 762 mmHg 97%
    08:00 +23°C° 0 mm 2 mps 762 mmHg 88%
    09:00 +25°C° 0 mm 2 mps 762 mmHg 79%
    10:00 +27°C° 0 mm 3 mps 762 mmHg 70%
    11:00 +28°C° 0.1 mm 3 mps 762 mmHg 68%
    12:00 +28°C° 0.1 mm 3 mps 761 mmHg 66%
    13:00 +29°C° 0.1 mm 3 mps 761 mmHg 64%
    14:00 +28°C° 0.1 mm 3 mps 760 mmHg 69%
    15:00 +27°C° 0.1 mm 3 mps 760 mmHg 75%
    16:00 +26°C° 0.1 mm 3 mps 760 mmHg 80%
    17:00 +25°C° 0.1 mm 3 mps 760 mmHg 85%
    18:00 +24°C° 0.1 mm 3 mps 761 mmHg 90%
    19:00 +21°C° 0.1 mm 3 mps 761 mmHg 95%
    20:00 +21°C° 0 mm 3 mps 762 mmHg 96%
    21:00 +21°C° 0 mm 3 mps 762 mmHg 96%
    22:00 +20°C° 0 mm 2 mps 762 mmHg 97%
    23:00 +20°C° 0 mm 2 mps 762 mmHg 97%

    Tomorrow, 2 June, Tuesday

    Time Temperature Precipitation Wind Pressure Humidity
    00:00 +20°C° 0 mm 2 mps 762 mmHg 97%
    01:00 +19°C° 0 mm 2 mps 762 mmHg 98%
    02:00 +19°C° 0 mm 2 mps 761 mmHg 97%
    03:00 +19°C° 0 mm 2 mps 761 mmHg 97%
    04:00 +19°C° 0 mm 2 mps 761 mmHg 97%
    05:00 +19°C° 0 mm 2 mps 761 mmHg 97%
    06:00 +18°C° 0 mm 2 mps 762 mmHg 96%
    07:00 +18°C° 0 mm 2 mps 762 mmHg 96%
    08:00 +21°C° 0 mm 3 mps 762 mmHg 84%
    09:00 +24°C° 0 mm 3 mps 762 mmHg 73%
    10:00 +27°C° 0 mm 4 mps 763 mmHg 61%
    11:00 +27°C° 0 mm 4 mps 762 mmHg 55%
    12:00 +28°C° 0 mm 4 mps 762 mmHg 49%
    13:00 +29°C° 0 mm 5 mps 761 mmHg 43%
    14:00 +29°C° 0 mm 5 mps 761 mmHg 45%
    15:00 +28°C° 0 mm 5 mps 761 mmHg 47%
    16:00 +28°C° 0 mm 5 mps 761 mmHg 49%
    17:00 +25°C° 0 mm 5 mps 761 mmHg 59%
    18:00 +22°C° 0 mm 5 mps 762 mmHg 70%
    19:00 +20°C° 0 mm 5 mps 762 mmHg 80%
    20:00 +19°C° 0 mm 5 mps 762 mmHg 83%
    21:00 +19°C° 0 mm 5 mps 762 mmHg 86%
    22:00 +18°C° 0 mm 4 mps 763 mmHg 89%
    23:00 +18°C° 0 mm 4 mps 762 mmHg 90%

    Day after tomorrow, 3 June, Wednesday

    Time Temperature Precipitation Wind Pressure Humidity
    00:00 +18°C° 0 mm 4 mps 762 mmHg 90%
    01:00 +18°C° 0 mm 4 mps 762 mmHg 91%
    02:00 +18°C° 0 mm 4 mps 762 mmHg 91%
    03:00 +17°C° 0 mm 5 mps 762 mmHg 92%
    04:00 +17°C° 0 mm 5 mps 761 mmHg 92%
    05:00 +17°C° 0 mm 5 mps 762 mmHg 93%
    06:00 +17°C° 0 mm 5 mps 762 mmHg 93%
    07:00 +17°C° 0 mm 5 mps 763 mmHg 94%
    08:00 +21°C° 0 mm 6 mps 763 mmHg 83%
    09:00 +23°C° 0 mm 6 mps 763 mmHg 72%
    10:00 +26°C° 0 mm 7 mps 763 mmHg 62%
    11:00 +27°C° 0 mm 7 mps 763 mmHg 61%
    12:00 +27°C° 0 mm 7 mps 762 mmHg 59%
    13:00 +28°C° 0 mm 7 mps 762 mmHg 58%
    14:00 +27°C° 0.1 mm 7 mps 762 mmHg 62%
    15:00 +26°C° 0.1 mm 7 mps 761 mmHg 66%
    16:00 +24°C° 0.1 mm 7 mps 761 mmHg 71%
    17:00 +23°C° 0 mm 6 mps 761 mmHg 78%
    18:00 +21°C° 0 mm 6 mps 762 mmHg 86%
    19:00 +20°C° 0 mm 6 mps 762 mmHg 93%
    20:00 +19°C° 0 mm 5 mps 763 mmHg 94%
    21:00 +19°C° 0 mm 5 mps 763 mmHg 94%
    22:00 +17°C° 0 mm 5 mps 763 mmHg 95%
    23:00 +17°C° 0 mm 5 mps 763 mmHg 94%

    4 June, Thursday

    Time Temperature Precipitation Wind Pressure Humidity
    00:00 +17°C° 0 mm 5 mps 763 mmHg 93%
    01:00 +16°C° 0 mm 5 mps 762 mmHg 92%
    02:00 +16°C° 0 mm 5 mps 762 mmHg 92%
    03:00 +16°C° 0 mm 5 mps 762 mmHg 92%
    04:00 +16°C° 0 mm 5 mps 761 mmHg 92%
    05:00 +16°C° 0 mm 5 mps 762 mmHg 92%
    06:00 +16°C° 0 mm 5 mps 762 mmHg 92%
    07:00 +16°C° 0 mm 5 mps 763 mmHg 92%
    08:00 +19°C° 0 mm 6 mps 763 mmHg 83%
    09:00 +21°C° 0 mm 6 mps 763 mmHg 73%
    10:00 +23°C° 0 mm 6 mps 763 mmHg 64%
    11:00 +24°C° 0 mm 6 mps 763 mmHg 62%
    12:00 +26°C° 0 mm 6 mps 762 mmHg 60%
    13:00 +27°C° 0 mm 6 mps 762 mmHg 57%
    14:00 +26°C° 0 mm 7 mps 761 mmHg 60%
    15:00 +26°C° 0 mm 7 mps 761 mmHg 63%
    16:00 +24°C° 0 mm 7 mps 761 mmHg 65%
    17:00 +23°C° 0 mm 7 mps 761 mmHg 72%
    18:00 +21°C° 0 mm 6 mps 762 mmHg 78%
    19:00 +19°C° 0 mm 5 mps 762 mmHg 85%
    20:00 +19°C° 0 mm 5 mps 763 mmHg 85%
    21:00 +20°C° 0 mm 5 mps 763 mmHg 85%
    22:00 +20°C° 0 mm 5 mps 763 mmHg 86%
    23:00 +20°C° 0 mm 5 mps 763 mmHg 88%

    5 June, Friday

    Time Temperature Precipitation Wind Pressure Humidity
    00:00 +19°C° 0 mm 5 mps 762 mmHg 90%
    01:00 +19°C° 0 mm 5 mps 762 mmHg 92%
    02:00 +19°C° 0 mm 5 mps 761 mmHg 92%
    03:00 +19°C° 0 mm 5 mps 761 mmHg 93%
    04:00 +20°C° 0 mm 5 mps 761 mmHg 94%
    05:00 +20°C° 0 mm 5 mps 761 mmHg 94%
    06:00 +20°C° 0 mm 5 mps 761 mmHg 95%
    07:00 +20°C° 0 mm 5 mps 762 mmHg 95%
    08:00 +21°C° 0 mm 5 mps 762 mmHg 88%
    09:00 +23°C° 0 mm 6 mps 762 mmHg 81%
    10:00 +26°C° 0 mm 6 mps 762 mmHg 74%
    11:00 +26°C° 0 mm 6 mps 761 mmHg 73%
    12:00 +27°C° 0 mm 7 mps 761 mmHg 71%
    13:00 +27°C° 0 mm 7 mps 760 mmHg 69%
    14:00 +27°C° 0 mm 7 mps 760 mmHg 72%
    15:00 +26°C° 0 mm 7 mps 760 mmHg 74%
    16:00 +24°C° 0 mm 6 mps 759 mmHg 76%
    17:00 +24°C° 0.1 mm 6 mps 760 mmHg 80%
    18:00 +23°C° 0.1 mm 6 mps 761 mmHg 84%
    19:00 +22°C° 0.1 mm 6 mps 761 mmHg 88%
    20:00 +22°C° 0.1 mm 6 mps 761 mmHg 89%
    21:00 +22°C° 0.1 mm 6 mps 762 mmHg 91%
    22:00 +21°C° 0.1 mm 5 mps 762 mmHg 92%
    23:00 +21°C° 0.1 mm 5 mps 761 mmHg 92%

    6 June, Saturday

    Time Temperature Precipitation Wind Pressure Humidity
    00:00 +21°C° 0.1 mm 5 mps 761 mmHg 92%
    01:00 +22°C° 0.1 mm 6 mps 761 mmHg 92%
    02:00 +21°C° 0 mm 5 mps 760 mmHg 93%
    03:00 +21°C° 0 mm 5 mps 760 mmHg 94%
    04:00 +21°C° 0 mm 5 mps 760 mmHg 95%
    05:00 +21°C° 0 mm 5 mps 760 mmHg 94%
    06:00 +21°C° 0 mm 5 mps 760 mmHg 93%
    07:00 +21°C° 0 mm 5 mps 761 mmHg 92%
    08:00 +23°C° 0 mm 5 mps 761 mmHg 84%
    09:00 +26°C° 0 mm 5 mps 761 mmHg 77%
    10:00 +27°C° 0 mm 5 mps 761 mmHg 69%
    11:00 +28°C° 0 mm 5 mps 760 mmHg 69%
    12:00 +28°C° 0 mm 5 mps 760 mmHg 68%
    13:00 +29°C° 0 mm 5 mps 759 mmHg 68%
    14:00 +28°C° 0.1 mm 5 mps 759 mmHg 73%
    15:00 +27°C° 0.1 mm 5 mps 759 mmHg 77%
    16:00 +26°C° 0.1 mm 5 mps 759 mmHg 81%
    17:00 +26°C° 0.1 mm 5 mps 759 mmHg 86%
    18:00 +25°C° 0.1 mm 5 mps 760 mmHg 90%
    19:00 +23°C° 0.1 mm 5 mps 760 mmHg 94%
    20:00 +23°C° 0.2 mm 5 mps 760 mmHg 95%
    21:00 +23°C° 0.2 mm 5 mps 760 mmHg 95%
    22:00 +23°C° 0.2 mm 5 mps 761 mmHg 96%
    23:00 +23°C° 0.2 mm 5 mps 760 mmHg 96%
    Show more